Regional Weather Roundup
Issued by NWS

Home | Current Version | Previous Version | Graphics & Text | Print | Product List | Glossary Off
Versions: 1 2 3 4 5 6 7 8 9 10 11 12 13 14 15 16 17 18 19 20 21 22 23 24 25 26 27 28 29 30 31 32 33 34 35 36 37 38 39 40 41 42 43 44 45 46 47 48 49 50

000
ASUS43 KTOP 011259
RWRKS

WEATHER ROUNDUP FOR KANSAS
NATIONAL WEATHER SERVICE GOODLAND KS
800 AM CDT SAT AUG 01 2015

NOTE:  "FAIR" INDICATES FEW OR NO CLOUDS BELOW 12,000 FEET WITH NO
SIGNIFICANT WEATHER AND/OR OBSTRUCTIONS TO VISIBILITY.

KSZ001>006-013>018-027>032-041>047-011400-
NORTHWEST KANSAS

CITY           SKY/WX    TMP DP  RH WIND       PRES   REMARKS
GOODLAND       SUNNY     69  62  78 SW12      30.14F
HAYS           SUNNY     70  61  73 CALM      30.10R
HILL CITY      SUNNY     71  67  87 CALM      30.10R
RUSSELL        SUNNY     71  69  93 W5        30.08R
$$

KSZ061>065-074>080-084>089-011400-
SOUTHWEST KANSAS

CITY           SKY/WX    TMP DP  RH WIND       PRES   REMARKS
DODGE CITY     MOSUNNY   69  67  93 S3        30.12S FOG
ELKHART          N/A     67  63  87 S5          N/A
GARDEN CITY    FOG       67  66  97 E5        30.12S VSB 1/2
GREAT BEND     SUNNY     72  66  83 SW3       30.09R
LIBERAL        PTSUNNY   70  66  88 SW8       30.13R
$$

KSZ066>073-081>083-090>101-011400-
SOUTHEAST KANSAS

CITY           SKY/WX    TMP DP  RH WIND       PRES   REMARKS
CHANUTE        SUNNY     73  71  93 W3        30.08S
COFFEYVILLE      N/A     70  66  87 CALM      30.08S
HUTCHINSON     SUNNY     73  71  93 CALM      30.09R FOG
MEDICINE LODGE   N/A     72  70  93 CALM      30.09R
NEWTON         SUNNY     72  68  88 S6        30.11R
PARSONS        SUNNY     72  71  97 CALM      30.09S
WICHITA INTL   MOSUNNY   75  72  90 S3        30.08S FOG
WICHITA JABRA  SUNNY     74  72  93 CALM      30.09R FOG
WINFIELD       MOSUNNY   74  73  97 SE3       30.09S
$$

KSZ007>012-019>026-033>040-048>060-102>105-011400-
NORTHEAST KANSAS

CITY           SKY/WX    TMP DP  RH WIND       PRES   REMARKS
CONCORDIA      SUNNY     75  70  84 NW8       30.08R
EMPORIA        SUNNY     75  72  90 SW3       30.08R
LAWRENCE       SUNNY     75  71  87 CALM      30.06R
MANHATTAN      SUNNY     74  72  93 SW5       30.06R
OLATHE IND     SUNNY     76  72  87 SW7       30.07S
OLATHE EXE     SUNNY     76  72  87 W5        30.06S
SALINA         SUNNY     74  70  87 S3        30.08R
TOPEKA BILLARD SUNNY     75  71  87 CALM      30.06R
TOPEKA FORBES  SUNNY     75  70  84 CALM      30.06S
$$


USA.gov is the U.S. government's official web portal to all federal, state and local government web resources and services.